This is the latest recevied weather packets stored in our database for station/object HF3P-11. If no packets are shown the sender has not sent any weather packets the latest 10 day(s).
| Time | Temp. | Humidity | Pressure | Rain* | Wind** | Luminosity | Snow |
|---|---|---|---|---|---|---|---|
| 1787835004 | 23.89° C | 48% | 1014.2 hPa | 0 mm | - | - | - |
| 1787834696 | 23.89° C | 47% | 1014.4 hPa | 0 mm | - | - | - |
| 1787834396 | 23.89° C | 50% | 1014.3 hPa | 0 mm | - | - | - |
| 1787834103 | 23.89° C | 51% | 1014.4 hPa | 0 mm | - | - | - |
| 1787833796 | 23.89° C | 50% | 1014.3 hPa | 0 mm | - | - | - |
| 1787833505 | 23.89° C | 51% | 1014.6 hPa | 0 mm | - | - | - |
| 1787833196 | 23.89° C | 50% | 1014.4 hPa | 0 mm | - | - | - |
| 1787832895 | 23.89° C | 51% | 1014.6 hPa | 0 mm | - | - | - |
| 1787832604 | 23.33° C | 52% | 1014.6 hPa | 0 mm | - | - | - |
| 1787832304 | 23.33° C | 51% | 1014.7 hPa | 0 mm | - | - | - |
| 1787832003 | 23.33° C | 51% | 1014.7 hPa | 0 mm | - | - | - |
| 1787831696 | 23.33° C | 48% | 1014.9 hPa | 0 mm | - | - | - |
| 1787831404 | 23.33° C | 51% | 1014.9 hPa | 0 mm | - | - | - |
| 1787831104 | 23.33° C | 50% | 1014.9 hPa | 0 mm | - | - | - |
| 1787830804 | 23.33° C | 49% | 1015 hPa | 0 mm | - | - | - |
| 1787830504 | 23.33° C | 50% | 1014.9 hPa | 0 mm | - | - | - |
| 1787830196 | 23.33° C | 50% | 1015 hPa | 0 mm | - | - | - |
| 1787829896 | 23.33° C | 48% | 1014.9 hPa | 0 mm | - | - | - |
| 1787829603 | 23.33° C | 47% | 1015.1 hPa | 0 mm | - | - | - |
| 1787829303 | 23.33° C | 48% | 1015.1 hPa | 0 mm | - | - | - |
| 1787828995 | 23.33° C | 51% | 1015.2 hPa | 0 mm | - | - | - |
| 1787828696 | 23.33° C | 49% | 1015.2 hPa | 0 mm | - | - | - |
| 1787828405 | 23.33° C | 49% | 1015.3 hPa | 0 mm | - | - | - |
| 1787828096 | 23.33° C | 53% | 1015.2 hPa | 0 mm | - | - | - |
| 1787827796 | 23.33° C | 53% | 1015.5 hPa | 0 mm | - | - | - |
* Rain latest hour (hover to see other rain measurements)
** Current wind speed in m/s (hover to see current wind gust speed)